Regional Weather Roundup
Issued by NWS

Home | Current Version | Previous Version | Text Only | Print | Product List | Glossary On
Versions: 1 2 3 4 5 6 7 8 9 10 11 12 13 14 15 16 17 18 19 20 21 22 23 24 25 26 27 28 29 30 31 32 33 34 35 36 37 38 39 40 41 42 43 44 45 46 47 48
000
ASUS45 KBOU 190810
RWRCO

WEATHER ROUNDUP FOR COLORADO
NATIONAL WEATHER SERVICE PUEBLO CO
100 AM MST MON FEB 19 2018

NOTE: "FAIR" INDICATES FEW OR NO CLOUDS BELOW 12000 FEET WITH NO
SIGNIFICANT WEATHER AND/OR OBSTRUCTIONS TO VISIBILITY.

COZ001>005-013-030-031-190900-
...NORTHWEST COLORADO...

CITY           SKY/WX    TMP DP  RH WIND       PRES   REMARKS
CRAIG          CLOUDY    29  23  78 CALM      29.40F
HAYDEN         CLOUDY    29  23  78 SW7       29.39F WCI  22
MEEKER         LGT RAIN  40  27  59 W24G46    29.40R
RABBIT EARS PA NOT AVBL
STEAMBOAT SPGS FAIR      40  17  38 SE5       29.39F
WALDEN         FAIR      30  18  59 S14       29.43F WCI  20
$$

COZ006>008-011-190900-
...WEST CENTRAL VALLEYS...

CITY           SKY/WX    TMP DP  RH WIND       PRES   REMARKS
GRAND JUNCTION MOCLDY    49  26  41 S14G23    29.42S
MONTROSE       CLOUDY    47  22  37 SW25G43   29.53S
EAGLE          MOCLDY    41  25  53 SW25G31   29.47F
RIFLE          CLOUDY    49  25  39 S17G32    29.41F
DELTA          NOT AVBL
NUCLA          CLOUDY    45  27  49 SW26G36   29.59S
$$

COZ017>023-064>068-190900-
...SOUTHWEST COLORADO...

CITY           SKY/WX    TMP DP  RH WIND       PRES   REMARKS
DURANGO        CLOUDY    39  30  70 S12       29.69S
CORTEZ         CLOUDY    45  28  51 SW15G29   29.64F
PAGOSA SPRINGS FAIR      37  27  67 SW14G26   29.70F
TELLURIDE      CLOUDY    35  18  51 S21G33    29.61F WCI  23
WOLF CREEK PAS CLOUDY    19  19 100 S31G51    29.70F WCI   0
$$

COZ009-010-012-014-032>034-037-058>063-190900-
...CENTRAL COLORADO...

CITY           SKY/WX    TMP DP  RH WIND       PRES   REMARKS
ASPEN          CLOUDY    40  19  43 W7        29.48F
BUENA VISTA    FAIR      35  12  39 CALM      29.53F
COPPER MTN     PTCLDY    25   9  50 S21       29.56F WCI  10
BERTHOUD PASS  FAIR      18   5  57 W18G28    29.55S WCI   2
COTTONWOOD PAS PTCLDY    36  14  41 W12G17    29.55F
GUNNISON       PTCLDY    26  17  68 S5        29.55F WCI  20
KREMMLING      PTCLDY    43  21  42 W12G21    29.46F
LEADVILLE      PTCLDY    28  10  46 S20G29    29.51F WCI  15
MONARCH PASS   PTCLDY    19  12  73 SW30G36   29.70F WCI   0
SALIDA         MOCLDY    39  19  44 CALM      29.62F
SUNLIGHT       LGT SNOW  23  21  93 SW23G45   29.51F WCI   7
WILKERSON PASS CLEAR     23  10  58 SW10G21   29.59F WCI  12
$$

COZ069>075-190900-
...SAN LUIS VALLEY/SANGRE DE CRISTO MOUNTAINS...

CITY           SKY/WX    TMP DP  RH WIND       PRES   REMARKS
ALAMOSA        CLEAR     35  23  61 SW10      29.64F WCI  27
DEL NORTE      FAIR      34  26  73 W17G25    29.61F WCI  23
LA VETA PASS   PTCLDY    27  19  74 S38G67    29.65S WCI   9
SAGUACHE       CLEAR     36  25  64 S17G29    29.58F
$$

COZ035-036-038>040-190900-
...NORTHERN COLORADO FRONT RANGE...

CITY           SKY/WX    TMP DP  RH WIND       PRES   REMARKS
DENVER INTL AP FRZ DRZL  18  16  92 NE16      29.65R VSB 3/4 WCI   3
DMNS CITY PARK NOT AVBL
AURORA         LGT SNOW  20  20  99 NE9       29.64R FOG     WCI   9
FRONT RANGE AP CLOUDY    20  19  93 E16       29.65F FOG     WCI   6
ERIE MUNI ARPT LGT SNOW  19  18  95 NE9       29.74S WCI   9
BOULDER MUN AP LGT SNOW  21  21 100 NE10      29.68R WCI  10
CENTENNIAL     LGT SNOW  22  22 100 NE8       29.62S VSB 1   WCI  12
BROOMFIELD     MIX PCPN  21  21 100 NE12      29.66R WCI   9
LOVELAND       MIX PCPN  16  14  92 E10       29.71R FOG     WCI   4
LONGMONT       LGT SNOW  22  19  88 NE8       29.72R WCI  12
$$

COZ041-046-047-076>085-087-088-190900-
...PIKES PEAK/PALMER DIVIDE AND SOUTHERN FOOTHILLS...

CITY           SKY/WX    TMP DP  RH WIND       PRES   REMARKS
COLO. SPRINGS  PTCLDY    32  20  61 NE13      29.53R WCI  22
A. F. ACADEMY  CLEAR     25  22  89 N15       29.53F WCI  13
SCHRIEVER AFB  NOT AVBL
CHEYENNE MTN   NOT AVBL
ELLICOTT         N/A    N/A N/A N/A NE15G25   29.53F
FALCON         FAIR      22  21  96 NE15      29.54F WCI   9
FORT CARSON    PTCLDY    33  23  67 N14       29.51R WCI  23
LIMON          CLOUDY    16  16 100 N18       29.63S FOG     WCI   0
MONUMENT HILL  FOG       19  19 100 NE8       29.58F VSB 1/4 WCI   9
CANON CITY     CLEAR     50  23  34 W7        29.48S
WALSENBURG     FAIR      48  23  37 SW22G40   29.54F
TRINIDAD       CLEAR     47  17  30 NW6       29.56S
$$

COZ042>045-048>051-090-091-190900-
...NORTHEAST COLORADO...

CITY           SKY/WX    TMP DP  RH WIND       PRES   REMARKS
GREELEY ARPT   LGT SNOW  15  12  88 NE16      29.74R FOG     WCI  -1
AKRON          LGT SNOW  13  10  88 N18       29.71S FOG     WCI  -4
BURLINGTON     CLOUDY    20  18  92 N22G32    29.67R WCI   3
WRAY           FLURRIES  18  14  86 MISG      29.76R
YUMA           NOT AVBL
STERLING       FLURRIES  16  10  79 NE14      29.77R WCI   1
HOLYOKE        LGT SNOW  19  14  79 N18       29.76R WCI   4
FORT MORGAN    CLOUDY    15  10  83 N17       29.74R WCI  -2
$$

COZ086-089-092>099-190900-
...SOUTHEAST COLORADO...

CITY           SKY/WX    TMP DP  RH WIND       PRES   REMARKS
PUEBLO         PTCLDY    48  23  37 S9        29.48S
LA JUNTA       PTCLDY    30  23  75 NE22G31   29.58R WCI  17
LAMAR          FLURRIES  30  23  75 NE17      29.60R WCI  18
SPRINGFIELD      N/A     44  30  57 W7        29.54S
$$





USA.gov is the U.S. government's official web portal to all federal, state and local government web resources and services.